Weather History for Ord, NE

Change the Weather History Date:

Wednesday, October 29, 2014

  Actual Average Record
Temperature  
Mean Temperature 41 °F 44 °F  
Max Temperature 62 °F 57 °F 77 °F (2003)
Min Temperature 19 °F 32 °F 19 °F (2014)
Degree Days  
Heating Degree Days 24 21  
Month to date heating degree days 361 441  
Since 1 July heating degree days 517 578  
Cooling Degree Days 0 0  
Month to date cooling degree days 0 6  
Year to date cooling degree days 692 844  
Moisture  
Dew Point 26 °F    
Average Humidity 60    
Maximum Humidity 92    
Minimum Humidity 28    
Precipitation  
Precipitation 0.00 in 0.05 in 2.06 in (1896)
Month to date precipitation 1.14 1.85  
Year to date precipitation 20.46 23.20  
Sea Level Pressure  
Sea Level Pressure 30.15 in    
Wind  
Wind Speed 5 mph (South)    
Max Wind Speed 20 mph    
Max Gust Speed 26 mph    
Visibility 10 miles    
Events      
T = Trace of Precipitation, MM = Missing Value Source: NWS Daily Summary

Daily Weather History Graph

Daily Weather History Graph

Search for Another Location

Airport:

Trip Planner

Search our weather history database for the weather conditions in past years. The results will help you decide how hot, cold, wet, or windy it might be!

Date:

Astronomy

Oct. 29, 2014 Rise Set
Actual Time 8:04 AM CDT 6:34 PM CDT
Civil Twilight 7:35 AM CDT 7:02 PM CDT
Nautical Twilight 7:02 AM CDT 7:35 PM CDT
Astronomical Twilight 6:30 AM CDT 8:07 PM CDT
Moon 1:25 PM CDT (10/29) 11:45 PM CDT (10/29)
Length of Visible Light 11h 27m
Length of Day
10h 30m
Waxing Crescent, 34% of the Moon is Illuminated
Oct 29
Waxing Crescent
Oct 30
First Quarter
Nov 6
Full
Nov 14
Last Quarter
Nov 22
New

Hourly Weather History & Observations

Time (CDT) Temp. Windchill Dew Point Humidity Pressure Visibility Wind Dir Wind Speed Gust Speed Precip Events Conditions
12:53 AM 28.9 °F 23.9 °F 21.9 °F 75% 30.23 in 10.0 mi SW 4.6 mph - N/A   Clear
1:53 AM 24.1 °F 19.7 °F 19.9 °F 84% 30.25 in 10.0 mi NW 3.5 mph - N/A   Clear
2:53 AM 23.0 °F 17.0 °F 19.0 °F 85% 30.24 in 10.0 mi NW 4.6 mph - N/A   Clear
3:53 AM 26.1 °F - 21.0 °F 81% 30.25 in 10.0 mi Calm Calm - N/A   Clear
4:53 AM 21.9 °F - 19.0 °F 89% 30.25 in 10.0 mi Calm Calm - N/A   Clear
5:53 AM 21.9 °F - 19.0 °F 89% 30.25 in 10.0 mi Calm Calm - N/A   Clear
6:53 AM 21.9 °F - 18.0 °F 85% 30.26 in 10.0 mi Calm Calm - N/A   Clear
7:53 AM 21.9 °F 17.2 °F 18.0 °F 85% 30.26 in 10.0 mi SSW 3.5 mph - N/A   Clear
8:53 AM 24.1 °F - 19.9 °F 84% 30.27 in 10.0 mi Calm Calm - N/A   Clear
9:53 AM 30.2 °F - 24.8 °F 80% 30.19 in 10.0 mi Calm Calm - N/A   Clear
10:53 AM 39.9 °F 36.7 °F 30.0 °F 68% 30.24 in 10.0 mi East 4.6 mph - N/A   Clear
11:53 AM 50.0 °F - 30.0 °F 46% 30.20 in 10.0 mi SE 8.1 mph - N/A   Clear
12:53 PM 54.0 °F - 25.0 °F 33% 30.16 in 10.0 mi SSE 10.4 mph 20.7 mph N/A   Clear
1:53 PM 57.0 °F - 28.0 °F 33% 30.12 in 10.0 mi South 12.7 mph - N/A   Clear
2:53 PM 59.0 °F - 27.0 °F 29% 30.09 in 10.0 mi South 16.1 mph 21.9 mph N/A   Clear
3:53 PM 60.1 °F - 28.9 °F 31% 30.05 in 10.0 mi South 13.8 mph 19.6 mph N/A   Clear
4:53 PM 61.0 °F - 28.9 °F 30% 30.04 in 10.0 mi SSE 11.5 mph - N/A   Clear
5:53 PM 61.0 °F - 30.0 °F 31% 30.03 in 10.0 mi SSE 8.1 mph - N/A   Clear
6:53 PM 54.0 °F - 30.0 °F 40% 30.02 in 10.0 mi ESE 5.8 mph - N/A   Clear
7:53 PM 46.9 °F - 32.0 °F 56% 30.04 in 10.0 mi Calm Calm - N/A   Clear
8:53 PM 45.0 °F - 30.9 °F 58% 30.04 in 10.0 mi Calm Calm - N/A   Clear
9:53 PM 37.0 °F - 28.9 °F 73% 30.05 in 10.0 mi Calm Calm - N/A   Clear
10:53 PM 45.0 °F - 33.1 °F 63% 30.04 in 10.0 mi Calm Calm - N/A   Partly Cloudy
11:53 PM 44.1 °F 38.6 °F 34.0 °F 68% 30.06 in 10.0 mi NW 10.4 mph - N/A   Mostly Cloudy